[[{"header":{"parameterUnit":"m.s-1","parameterCategory":1,"la1":30.2991,"la2":30.254,"lo1":-89.0895,"lo2":-89.0444,"dy":0.0017,"dx":0.0017,"nx":28,"ny":28,"refTime":"2024-05-01T09:00:00:Z","depth":0,"parameterNumber":2,"parameterNumberName":"U-component_of_WINDS"},"data":[0,0,0,0,0,0,0,0,0,0,0,0,0,0,0,0,0,0,0,0,0,0,0,0,0,0,0,0,0,0,0,0,0,0,0,0,0,0,0,0,0,0,0,0,0,0,0,0,0,0,0,0,0,0,0,0,0,0,-1.0171,-1.0171,0,-1.0159,-1.0159,-1.0159,-1.0156,-1.0156,-1.0156,-1.0156,-1.0143,-1.0143,-1.0142,0,0,0,0,0,0,0,0,0,0,0,0,0,-1.0189,-1.0189,-1.0171,-1.0171,-1.0171,-1.0159,-1.0159,-1.0159,-1.0156,-1.0156,-1.0156,-1.0156,-1.0143,-1.0143,-1.0142,0,0,0,0,0,0,0,0,0,0,0,0,0,-1.018,-1.0189,-1.0171,-1.0168,-1.0167,-1.016,-1.0159,-1.0159,-1.0156,-1.0156,-1.0156,-1.0156,-1.0143,-1.0143,-1.0142,-1.0137,0,0,-1.014,-1.014,0,0,0,0,0,0,0,0,-1.018,-1.0179,-1.0168,-1.0168,-1.0167,-1.0159,-1.0161,-1.0152,-1.0155,-1.016,-1.0156,-1.0156,-1.0148,-1.0147,-1.0145,-1.0136,-1.0136,-1.014,-1.014,-1.014,-1.0139,0,0,0,0,0,0,0,-1.0181,-1.018,-1.0166,-1.0168,-1.0167,-1.0166,-1.0165,-1.0159,-1.0154,-1.016,-1.0159,-1.0158,-1.0148,-1.0145,-1.0144,-1.0135,-1.014,-1.014,-1.0139,-1.0139,-1.0122,-1.0122,0,0,0,0,0,0,-1.0182,-1.018,-1.0167,-1.0166,-1.0174,-1.0166,-1.0165,-1.0162,-1.0154,-1.0153,-1.0158,-1.0158,-1.0146,-1.0145,-1.0144,-1.0137,-1.014,-1.0139,-1.0139,-1.0122,-1.0122,-1.0122,0,0,0,0,0,0,-1.0183,-1.0181,-1.0167,-1.0173,-1.0171,-1.0166,-1.0162,-1.0161,-1.0159,-1.0153,-1.0151,-1.0156,-1.0146,-1.0145,-1.0139,-1.0137,-1.0139,-1.0138,-1.0123,-1.0122,-1.0122,-1.0124,0,0,0,0,0,0,-1.0183,-1.0181,-1.0179,-1.0173,-1.0171,-1.0162,-1.0162,-1.0161,-1.0158,-1.0158,-1.0151,-1.015,-1.0146,-1.014,-1.0138,-1.0136,-1.0138,-1.0123,-1.0122,-1.0122,-1.0124,-1.0124,-1.0124,0,0,0,0,0,-1.0184,-1.018,-1.0179,-1.0178,-1.0168,-1.0162,-1.0161,-1.0157,-1.0158,-1.0156,-1.0152,-1.015,-1.0138,-1.0139,-1.0137,-1.0135,-1.0123,-1.0123,-1.0122,-1.0124,-1.0124,-1.0124,0,0,0,0,0,0,-1.0186,-1.0179,-1.0178,-1.0172,-1.0168,-1.0162,-1.0159,-1.0157,-1.0152,-1.0152,-1.0148,-1.0146,-1.0141,-1.0137,-1.0139,-1.013,-1.013,-1.0129,-1.0132,-1.0132,-1.0132,-1.0133,-1.0137,0,0,0,0,0,-1.0185,-1.0181,-1.0176,-1.0171,-1.0169,-1.0164,-1.0161,-1.0159,-1.0154,-1.0152,-1.0148,-1.0143,-1.0138,-1.0135,-1.013,-1.0124,-1.0123,-1.0122,-1.0122,-1.0122,-1.0121,-1.0118,-1.0118,-1.0122,-1.0122,-1.0122,0,0,-1.0185,-1.0181,-1.0178,-1.0171,-1.0167,-1.0163,-1.0163,-1.0158,-1.0155,-1.0151,-1.0146,-1.0142,-1.0137,-1.0131,-1.0128,-1.0128,-1.012,-1.0121,-1.0121,-1.0121,-1.0118,-1.0117,-1.0117,-1.0121,-1.0121,-1.0121,0,0,-1.0181,-1.0177,-1.0173,-1.017,-1.0165,-1.0162,-1.0161,-1.0155,-1.0153,-1.0147,-1.0145,-1.0141,-1.0132,-1.0129,-1.0126,-1.0122,-1.012,-1.012,-1.0119,-1.0116,-1.0116,-1.0116,-1.0115,-1.0114,-1.012,-1.012,-1.012,0,-1.018,-1.0174,-1.0171,-1.0167,-1.0164,-1.0162,-1.0157,-1.0154,-1.0147,-1.0145,-1.0145,-1.0135,-1.0131,-1.0125,-1.0124,-1.0121,-1.012,-1.0121,-1.0117,-1.0116,-1.0116,-1.0115,-1.0114,-1.012,-1.012,-1.012,-1.012,0,-1.0174,-1.0169,-1.0166,-1.0161,-1.0157,-1.0153,-1.015,-1.0147,-1.0145,-1.0142,-1.0137,-1.0132,-1.0126,-1.0125,-1.0123,-1.0118,-1.0118,-1.0117,-1.0117,-1.0116,-1.0114,-1.0114,-1.012,-1.012,-1.012,-1.012,0,0,-1.0169,-1.0163,-1.0162,-1.016,-1.0154,-1.0151,-1.0147,-1.0142,-1.0139,-1.0135,-1.0131,-1.0125,-1.0124,-1.0121,-1.0119,-1.0116,-1.0114,-1.0116,-1.0116,-1.0116,-1.0108,-1.0109,-1.0108,-1.0113,-1.0113,-1.0113,-1.0109,0,-1.0165,-1.0157,-1.0155,-1.0149,-1.0145,-1.0143,-1.014,-1.0136,-1.0134,-1.013,-1.0127,-1.0122,-1.0122,-1.012,-1.0118,-1.0114,-1.0112,-1.0115,-1.0109,-1.0109,-1.011,-1.0107,-1.0107,-1.0104,-1.0108,-1.0108,-1.0108,0,-1.0158,-1.0155,-1.0148,-1.0144,-1.0142,-1.0139,-1.0134,-1.0131,-1.0127,-1.0125,-1.0122,-1.012,-1.0116,-1.0117,-1.0111,-1.0113,-1.011,-1.0108,-1.0108,-1.0107,-1.0108,-1.0106,-1.0103,-1.0102,-1.0107,-1.0107,-1.0107,0,-1.0156,-1.0149,-1.0145,-1.0143,-1.0138,-1.0136,-1.0133,-1.0129,-1.0127,-1.0123,-1.0121,-1.0117,-1.0114,-1.0111,-1.0108,-1.0109,-1.0102,-1.0103,-1.0101,-1.0101,-1.0099,-1.0099,-1.0095,-1.0098,-1.0098,-1.0098,-1.0098,0,-1.0151,-1.0147,-1.0144,-1.0141,-1.0136,-1.0134,-1.013,-1.0128,-1.0124,-1.0121,-1.0119,-1.0116,-1.0113,-1.0109,-1.0107,-1.0102,-1.0101,-1.01,-1.0099,-1.01,-1.01,-1.0098,-1.0098,-1.0098,-1.0098,-1.0098,-1.0098,0,-1.0147,-1.0145,-1.014,-1.0136,-1.0135,-1.0132,-1.0128,-1.0125,-1.0123,-1.0119,-1.0118,-1.0115,-1.011,-1.0108,-1.0102,-1.0101,-1.0096,-1.0095,-1.0097,-1.0097,-1.0095,-1.0095,-1.0089,-1.0088,-1.0092,-1.0092,-1.0092,0,-1.0143,-1.014,-1.0137,-1.0134,-1.0132,-1.0129,-1.0127,-1.0124,-1.0122,-1.0118,-1.0116,-1.0111,-1.0108,-1.0101,-1.0098,-1.0094,-1.0094,-1.0092,-1.0093,-1.0094,-1.0093,-1.0093,-1.0093,-1.0091,-1.0091,-1.0091,-1.0091,0,-1.0138,-1.0137,-1.0134,-1.013,-1.0128,-1.0125,-1.0122,-1.012,-1.0118,-1.0115,-1.0111,-1.0108,-1.0103,-1.0099,-1.0095,-1.0093,-1.0092,-1.0091,-1.0091,-1.0091,-1.0092,-1.0091,-1.0096,-1.0091,-1.0091,-1.0091,-1.0091,-1.0091,-1.0134,-1.0131,-1.0128,-1.0125,-1.0123,-1.012,-1.0118,-1.0116,-1.0112,-1.0108,-1.0108,-1.0103,-1.01,-1.0095,-1.0092,-1.0089,-1.0089,-1.0088,-1.0088,-1.0088,-1.0088,-1.0093,-1.0088,-1.0088,-1.0088,-1.0088,-1.0088,0,-1.0128,-1.0126,-1.0123,-1.0119,-1.0117,-1.0117,-1.0114,-1.0112,-1.0108,-1.0106,-1.0103,-1.0098,-1.0095,-1.0092,-1.0088,-1.0086,-1.0086,-1.0085,-1.0085,-1.0085,-1.0088,-1.0089,-1.0086,-1.0086,-1.0086,-1.0086,-1.0086,-1.0086,-1.0124,-1.012,-1.0119,-1.0114,-1.0113,-1.0109,-1.0107,-1.0105,-1.0103,-1.0099,-1.0096,-1.0094,-1.0092,-1.0088,-1.0085,-1.0084,-1.0082,-1.0082,-1.0081,-1.0084,-1.0084,-1.0085,-1.0085,-1.0082,-1.0082,-1.0078,-1.0078,-1.0078]},{"header":{"parameterUnit":"m.s-1","parameterCategory":1,"la1":30.2991,"la2":30.254,"lo1":-89.0895,"lo2":-89.0444,"dy":0.0017,"dx":0.0017,"nx":28,"ny":28,"refTime":"2024-05-01T09:00:00:Z","depth":0,"parameterNumber":3,"parameterNumberName":"V-component_of_WINDS"},"data":[0,0,0,0,0,0,0,0,0,0,0,0,0,0,0,0,0,0,0,0,0,0,0,0,0,0,0,0,0,0,0,0,0,0,0,0,0,0,0,0,0,0,0,0,0,0,0,0,0,0,0,0,0,0,0,0,0,0,1.4733,1.4733,0,1.4785,1.4786,1.4786,1.4777,1.4776,1.4775,1.4774,1.4824,1.4826,1.4829,0,0,0,0,0,0,0,0,0,0,0,0,0,1.4621,1.4623,1.4733,1.4733,1.4734,1.4785,1.4786,1.4786,1.4777,1.4776,1.4775,1.4774,1.4824,1.4826,1.4829,0,0,0,0,0,0,0,0,0,0,0,0,0,1.4671,1.4623,1.4732,1.4735,1.4736,1.4785,1.4786,1.4786,1.4777,1.4776,1.4774,1.4773,1.4823,1.4826,1.4829,1.4877,0,0,1.4839,1.4841,0,0,0,0,0,0,0,0,1.4668,1.4675,1.4734,1.4735,1.4736,1.4773,1.4765,1.4817,1.4778,1.4762,1.4774,1.4772,1.4808,1.4812,1.4825,1.4879,1.4881,1.4839,1.4841,1.4843,1.4844,0,0,0,0,0,0,0,1.4664,1.4672,1.4753,1.4735,1.4736,1.4733,1.4739,1.4774,1.4792,1.4763,1.4762,1.4769,1.4808,1.4822,1.4826,1.4882,1.4839,1.4842,1.4844,1.4846,1.4977,1.4979,0,0,0,0,0,0,1.4661,1.467,1.4752,1.4755,1.4698,1.4736,1.4742,1.4763,1.4791,1.4795,1.477,1.4768,1.4817,1.4822,1.4828,1.4886,1.4843,1.4846,1.4848,1.4976,1.4978,1.4979,0,0,0,0,0,0,1.4658,1.4668,1.4749,1.4712,1.4722,1.474,1.4762,1.4764,1.4778,1.4797,1.4799,1.4781,1.4816,1.4823,1.4865,1.4887,1.4847,1.485,1.4974,1.4976,1.4978,1.5002,0,0,0,0,0,0,1.4655,1.4667,1.4686,1.4713,1.4724,1.4787,1.4764,1.4766,1.4784,1.4782,1.4808,1.4811,1.4816,1.486,1.4868,1.4891,1.4853,1.4972,1.4975,1.4978,1.4999,1.5005,1.501,0,0,0,0,0,1.4651,1.469,1.4687,1.4697,1.4749,1.4788,1.4795,1.4801,1.4786,1.4805,1.4817,1.481,1.4884,1.4864,1.4873,1.4898,1.4971,1.4974,1.4977,1.4997,1.5004,1.5009,0,0,0,0,0,0,1.4665,1.4694,1.4691,1.474,1.4762,1.4786,1.4811,1.4807,1.4833,1.483,1.4835,1.4841,1.4883,1.4894,1.4873,1.4945,1.4925,1.493,1.4937,1.4943,1.4948,1.4945,1.4856,0,0,0,0,0,1.4674,1.4705,1.4727,1.4768,1.478,1.4793,1.481,1.4813,1.4835,1.4844,1.4859,1.488,1.4908,1.4926,1.4952,1.5001,1.5006,1.5022,1.5027,1.5031,1.5036,1.5062,1.5069,1.4991,1.4991,1.499,0,0,1.4692,1.4712,1.4731,1.4772,1.4789,1.482,1.4801,1.4834,1.4856,1.4849,1.489,1.4901,1.4924,1.4969,1.499,1.498,1.5058,1.5035,1.5038,1.5041,1.5066,1.5073,1.508,1.4993,1.4992,1.4992,0,0,1.4742,1.476,1.4796,1.4814,1.4841,1.485,1.4858,1.4883,1.4891,1.4932,1.4927,1.4953,1.5001,1.5018,1.5032,1.5088,1.5082,1.5096,1.5123,1.5149,1.5155,1.516,1.518,1.5187,1.5101,1.5101,1.5101,0,1.4762,1.4809,1.4815,1.4849,1.4867,1.4862,1.4899,1.4915,1.4948,1.496,1.4949,1.5009,1.5024,1.5073,1.5087,1.5099,1.5108,1.5094,1.5154,1.5159,1.5164,1.5183,1.5191,1.5102,1.5102,1.5102,1.5102,0,1.4831,1.4864,1.489,1.4924,1.4944,1.4979,1.4989,1.5009,1.501,1.5019,1.5061,1.5079,1.5109,1.5121,1.5121,1.517,1.5163,1.5152,1.5132,1.5173,1.5191,1.5198,1.5105,1.5104,1.5104,1.5103,0,0,1.4892,1.4929,1.4938,1.4954,1.4982,1.5007,1.5041,1.5072,1.5089,1.5111,1.5139,1.518,1.5171,1.5187,1.5189,1.5212,1.5254,1.5198,1.5199,1.5209,1.5309,1.5317,1.5325,1.5251,1.5252,1.5253,1.5307,0,1.4945,1.5007,1.5013,1.5068,1.5098,1.5093,1.5123,1.5143,1.5152,1.5178,1.5187,1.5216,1.5202,1.5212,1.5234,1.5245,1.5275,1.5241,1.5276,1.5277,1.5271,1.5335,1.5343,1.5393,1.5314,1.5315,1.5316,0,1.5015,1.5041,1.5099,1.5124,1.5136,1.5163,1.5192,1.5216,1.5239,1.5244,1.5263,1.5262,1.5295,1.5273,1.5319,1.5296,1.5311,1.5318,1.532,1.5324,1.53,1.534,1.5409,1.5417,1.5327,1.5326,1.5325,0,1.5054,1.5103,1.5145,1.5158,1.5187,1.5206,1.5219,1.524,1.5258,1.5282,1.5293,1.5321,1.5336,1.5356,1.5362,1.5346,1.5408,1.5387,1.5413,1.5413,1.5427,1.5426,1.5499,1.5435,1.5435,1.5435,1.5435,0,1.5112,1.5148,1.5163,1.5188,1.5228,1.5234,1.5272,1.5284,1.5302,1.5329,1.5326,1.5351,1.5357,1.5383,1.5387,1.5425,1.5431,1.5436,1.5437,1.5437,1.5436,1.5447,1.5444,1.5437,1.5437,1.5436,1.5436,0,1.5163,1.5174,1.5219,1.5244,1.525,1.5278,1.5299,1.5322,1.5331,1.5365,1.5373,1.5387,1.5416,1.5424,1.546,1.5463,1.5507,1.5504,1.55,1.55,1.5526,1.5524,1.5609,1.5621,1.5549,1.5549,1.555,0,1.52,1.5228,1.5256,1.5274,1.5288,1.5317,1.5336,1.5342,1.5362,1.5389,1.5409,1.5439,1.5463,1.5511,1.5523,1.5549,1.5548,1.5576,1.5552,1.5551,1.5549,1.5547,1.555,1.5581,1.5581,1.5582,1.5582,0,1.5265,1.5269,1.5297,1.5327,1.5349,1.5372,1.5394,1.5409,1.5418,1.544,1.5471,1.549,1.5526,1.5556,1.5583,1.5594,1.559,1.559,1.5597,1.5598,1.5595,1.5597,1.5513,1.5588,1.5587,1.5587,1.5587,1.5587,1.5311,1.5335,1.5359,1.5389,1.5407,1.5427,1.5451,1.5463,1.549,1.5521,1.5522,1.5556,1.5577,1.5613,1.5626,1.5651,1.5643,1.5654,1.5657,1.5659,1.5662,1.559,1.5656,1.5656,1.5656,1.5656,1.5656,0,1.5376,1.5391,1.5419,1.5451,1.5475,1.5469,1.5493,1.5513,1.5543,1.5563,1.5587,1.5623,1.5651,1.5665,1.5693,1.5711,1.5709,1.5718,1.5717,1.5719,1.5668,1.5659,1.5718,1.5718,1.5718,1.5718,1.5718,1.5718,1.5413,1.5454,1.5461,1.551,1.5524,1.5558,1.5572,1.5591,1.5607,1.5647,1.5671,1.5681,1.5698,1.5727,1.5752,1.5755,1.5766,1.5775,1.5778,1.5729,1.5723,1.5717,1.5709,1.5778,1.5778,1.5827,1.5828,1.5828]}]]